events-overview

 

Overall Male - Vulcan Run 10K 2016

** Results are for the private use of participants and are the Intellectual Property of Set Up Events. Unauthorized use of these results is prohibited.

Place Bib NAME Age Sex CITY/STATE TeamName GunTime GunPace TagTime TagPace
117KIRUBEL ERASSA23MATLANTA GA 00:29:3100:04:4600:29:3100:04:46
220ELKANAH KIBET33MFOUNTAIN CO 00:29:3400:04:4700:29:3400:04:47
319CALEB HOOVER24MGREENVILLE SC 00:29:4500:04:4800:29:4500:04:48
432PAUL SUGUT30MGRAND PRAIRIE TX 00:29:4900:04:4900:29:4900:04:49
5819RACHID EZZOUNIOU34MMORRISTOWN NJ 00:29:5200:04:4900:29:5200:04:49
6863HILLARY TOO37MMORRISTOWN NJ 00:30:0900:04:5200:30:0900:04:52
730TABOR STEVENS25MGREENVILLE SC 00:30:1200:04:5300:30:1200:04:53
818ADAM FREUDENTHAL27MSPARTANBURG SC 00:30:2300:04:5500:30:2300:04:54
9483ANDREW MONAGHAN23MSTARKVILLE MS 00:31:3500:05:0600:31:3400:05:06
10857PATRICK ROHR24MMOBILE AL 00:31:4000:05:0700:31:4000:05:07
1122RICHARD KIMANI28MBIRMINGHAM ALCADENCE COED00:32:0200:05:1000:32:0100:05:10
1227JEFF RHODES30MBIRMINGHAM ALRUNNINGLANE COED00:32:1700:05:1300:32:1600:05:13
1316MATHEW DUNN23MDECATUR AL 00:32:3000:05:1500:32:2900:05:15
14959JOHN ROHR20MSAN JOSE CA 00:32:3500:05:1600:32:3400:05:16
15994DAVID MOKONE25MBOWLING GREEN KY 00:33:4800:05:2700:33:4700:05:27
1626SAMUEL PALMER28MBIRMINGHAM ALCAHABA DISTANCE PROJECT00:34:0100:05:3000:34:0100:05:30
17861PARKER STEED20MBRENTWOOD TN 00:34:1800:05:3200:34:1800:05:32
18476ETHAN MINES18MPANAMA CITY FL 00:34:3300:05:3500:34:3200:05:35
1912MICHAEL BROWN32MBIRMINGHAM ALRUNNINGLANE COED00:34:4400:05:3700:34:4200:05:36
2015GOLDEN COACHMAN32MBIRMINGHAM ALCAHABA DISTANCE PROJECT00:34:5300:05:3800:34:5300:05:38
211093JOSH BAKER26MHOOVER AL 00:35:1100:05:4100:35:0900:05:41
22942JACK MILLER22MBIRMINGHAM AL 00:35:1500:05:4200:35:1400:05:41
2331ORINTHAL STRIGGLES40MCOLUMBAI SC 00:35:3000:05:4400:35:3000:05:44
24837JACOB RUSSELL LISTER18MBIRMINGHAM ALCADENCE COED00:35:4600:05:4700:35:4500:05:46
25804JEFFREY ZICKUS42MATLANTA GA 00:35:4700:05:4700:35:4600:05:46
261011MATTHEW HAMMERSMITH29MGREENVILLE SC 00:36:0000:05:4900:35:5900:05:49
2758JUSTIN ARSEMENT24MBIRMINGHAM ALCAHABA DISTANCE PROJECT00:36:0200:05:4900:36:0000:05:49
2834MATTHEW WHITIS48MCOLUMBUS GA 00:36:0400:05:4900:36:0200:05:49
29527GRIFFIN OAKS18MBIRMINGHAM AL 00:36:3400:05:5400:36:3000:05:54
30953DAVID OLSEN25MBIRMINGHAM AL 00:36:4800:05:5700:36:4700:05:56
PlaceBibNAMEAgeSexCITY/STATETeamNameGunTimeGunPaceTagTimeTagPace
3139AARON AINSWORTH34MBIRMINGHAM AL 00:36:4900:05:5700:36:4700:05:56
32200SEAN DRUMMOND18MBIRMINGHAM AL 00:36:5200:05:5700:36:3900:05:55
33553BLAKE PEARSON37MHOMEWOOD ALRESOLUTE RUNNING COED00:37:0900:06:0000:37:0700:06:00
3460BRIAN ATKINS35MHOMEWOOD AL 00:37:4300:06:0500:37:4000:06:05
35521MICHAEL NIEZGODA27MBIRMINGHAM ALCAHABA DISTANCE PROJECT00:38:1900:06:1100:38:1700:06:11
36140JEFF CLARK51MMCCALLA AL 00:38:2300:06:1200:38:2200:06:12
37731JIRI VLACH37MBIRMINGHAM AL 00:39:0000:06:1800:38:5700:06:17
38687ERIC SULLIVAN48MBIRMINGHAM AL 00:39:0600:06:1900:39:0400:06:18
39642DANNY SHAFFIELD43MVESTAVIA HILLS AL 00:39:2400:06:2200:39:2200:06:21
40423WILLIAM LOVE15MVESTAVIA HILLS AL 00:39:5600:06:2700:39:5300:06:26
41633JOHN SCHOR22MBIRMINGHAM ALCADENCE COED00:40:0500:06:2800:40:0300:06:28
42769TREY WHITT45MBIRMINGHAM AL 00:40:1800:06:3000:40:0900:06:29
43987GRAHAM BIANCHI16MTRUSSVILLE AL 00:40:2700:06:3200:40:2100:06:31
44188DAVID DENARD48MTRUSSVILLE AL 00:40:4300:06:3500:40:3900:06:34
45634MIKE SCHOR53MBIRMINGHAM ALCADENCE MEN00:40:5600:06:3700:40:5200:06:36
46590ALAN REEVES26MBIRMINGHAM AL 00:41:0100:06:3700:40:5800:06:37
4798JOSH BOYD16MASHVILLE AL 00:41:0100:06:3700:40:5800:06:37
48204DANIEL DYE39MBIRMINGHAM AL 00:41:1300:06:3900:40:3900:06:34
49384DANNER KLINE38MBIRMINGHAM AL 00:41:2000:06:4000:41:1900:06:40
50849CHARLIE PARKS36MBIRMINGHAM AL 00:41:2200:06:4100:41:1700:06:40
5186BRANDON BLACK37MBIRMINGHAM AL 00:41:2500:06:4100:41:2300:06:41
52391LOREN KULP44MALABASTER ALCADENCE MEN00:41:2700:06:4200:41:2400:06:41
53614BILLY ROSE35MBIRMINGHAM ALRUNNINGLANE COED00:41:3000:06:4200:41:2600:06:41
541029RUSSELL WILLIAMS47MBIRMINGHAM AL 00:41:3900:06:4400:41:3700:06:43
55165DAMON COX38MHOMEWOOD AL 00:41:4400:06:4400:41:4200:06:44
56706SHAUN TILLERY36MLEEDS AL 00:41:5600:06:4600:41:5200:06:46
57186JOSEPH DEASE40MVESTAVIA HILLS AL 00:41:5600:06:4600:41:5300:06:46
58504KIRK MUELLER55MBIRMINGHAM ALCADENCE MEN00:42:0000:06:4700:41:5600:06:46
59803CHRIS ZENKER52MBIRMINGHAM AL 00:42:0900:06:4800:42:0500:06:48
6062EVAN BAGGETT36MBIRMINGHAM AL 00:42:2400:06:5100:42:1600:06:49
61451GREGORY MCATEE30MDURHAM NC 00:42:3000:06:5200:42:2400:06:51
PlaceBibNAMEAgeSexCITY/STATETeamNameGunTimeGunPaceTagTimeTagPace
6293RYAN BONNER32MBIRMINGHAM AL 00:42:3500:06:5300:42:3300:06:52
63860CLEWIS SMITH25MBIRMINGHAM AL 00:42:4700:06:5400:42:3200:06:52
641063WILLIAM SASSER39MHOMEWOOD AL 00:42:4700:06:5400:42:3900:06:53
65843WALTER MCCORD, JR.25MBIRMINGHAM AL 00:42:4900:06:5500:42:2100:06:50
66440CRAIG MATHEWS44MODENVILLE AL 00:42:5100:06:5500:42:4900:06:55
67178NATHANIEL DARVILLE39MBIRMINGHAM AL 00:42:5200:06:5500:42:4700:06:54
68979NATE WILLIAMS29MBIRMINGHAM AL 00:42:5700:06:5600:42:3800:06:53
69297CHAD HATHORNE48MHOMEWOOD AL 00:43:0800:06:5800:43:0400:06:57
70498ALEX MORROW44MBIRMINGHAM ALRESOLUTE RUNNING COED00:43:1300:06:5900:42:5300:06:55
71897JOSH DYKES17MTRUSSVILLE AL 00:43:1600:06:5900:43:0600:06:58
72627NATHAN SATURDAY38MBIRMINGHAM AL 00:43:1800:06:5900:43:1600:06:59
73745JOSHUA WASHINGTON21MMERIDIANVILLE AL 00:43:3300:07:0200:43:2000:07:00
74629PAUL SCALICI36MBIRMINGHAM AL 00:43:4000:07:0300:43:3400:07:02
75393JOSEPH LAHR29MBIRMINGHAM AL 00:43:4400:07:0400:43:4000:07:03
76526JACOB NUTTER20MALGONAC MI 00:43:5000:07:0500:43:1100:06:58
77468SIMON MCVEY44MBIRMINGHAM AL 00:43:5200:07:0500:43:4800:07:04
78446SIDNEY MAYS55MVESTAVIA AL 00:43:5400:07:0500:43:5000:07:05
79329JIM HOOVER51MBIRMINGHAM AL 00:43:5800:07:0600:43:4800:07:04
80806STEVE ARCHER50MMUSCLE SHOALS AL 00:43:5900:07:0600:43:5500:07:05
81888RENATO CORBETTA47MBIRMINGHAM AL 00:44:1000:07:0800:43:5800:07:06
821021ROGER WOOD41MBIRMINGHAM AL 00:44:1200:07:0800:44:0500:07:07
83570DAVID PLANTE54MBIRMINGHAM AL 00:44:1800:07:0900:44:1400:07:08
84229JOHN FORREST25MPELHAM AL 00:44:2000:07:0900:43:5900:07:06
85917MATT HOOD47MIRVINE CA 00:44:2400:07:1000:44:2100:07:10
86814MATTHEW COUCH31MMOUNTAIN BROOK ALCABANISS JOHNSTON00:44:2600:07:1000:44:1600:07:09
87467MARK MCTUNE51MHELENA AL 00:44:2900:07:1100:44:2500:07:10
88195STAN DORAN50MPELHAM AL 00:44:3000:07:1100:44:2600:07:10
89557CHARLIE PETERS30MBIRMINGHAM AL 00:44:3000:07:1100:44:2000:07:10
90768HAL WHITSITT33MVESTAVIA HILLS AL 00:44:3600:07:1200:44:2800:07:11
91434TODD MAPLE44MBIRMINGHAM AL 00:44:3700:07:1200:44:2800:07:11
92902YU FENG32MSTILLWATER OK 00:44:4300:07:1300:44:3500:07:12
PlaceBibNAMEAgeSexCITY/STATETeamNameGunTimeGunPaceTagTimeTagPace
93813CHRISTOPHER CAREY46MBIRMINGHAM AL 00:44:5100:07:1400:44:4100:07:13
94128J. WESLEY CAPUTO24MMONTGOMERY AL 00:44:5300:07:1500:44:3300:07:12
95220CHRIS FARRINGTON53MBIRMINGHAM AL 00:45:0100:07:1600:44:5600:07:15
9651JOHN ANDRESS13MHOMEWOOD ALRESOLUTE RUNNING COED00:45:1000:07:1800:45:1000:07:18
971084JASON MURRAY35MHOOVER AL 00:45:1100:07:1800:45:0400:07:17
98891SAM CULBERTSON13MBIRMINGHAM AL 00:45:1300:07:1800:45:0900:07:17
99880MARC BROMSTAD43MBIRMINGHAM AL 00:45:2000:07:1900:45:1400:07:18
100842LEE MATHIS30MHOOVER AL 00:45:2100:07:1900:44:5600:07:15
101878RYAN BLY27MMC CALLA AL 00:45:2600:07:2000:45:2400:07:20
102184RON DEAN47MBIRMINGHAM AL 00:45:3000:07:2100:45:2400:07:20
1031074MITSUO TSUKAMOTO51MDECATUR AL 00:45:3000:07:2100:45:0100:07:16
104421EDUARDO LOPEZ ANTA33MMOUNTAIN BROOK AL 00:45:3100:07:2100:45:2600:07:20
105169SCOTT CRAWFORD48MTRUSSVILLE ALRUNNINGLANE COED00:45:3300:07:2100:45:2600:07:20
106870GUY ABLE23MJASPER AL 00:45:3400:07:2100:45:1800:07:19
107591TREY REICH40MBIRMINGHAM AL 00:45:3500:07:2100:44:4900:07:14
108168ALLEN CRAWFORD50MSPRINGVILLE AL 00:45:3600:07:2200:45:3400:07:21
109638MATT SEARSON35MBIRMINGHAM AL 00:45:3700:07:2200:45:3700:07:22
110587NICK RAYBURN28MBIRMINGHAM AL 00:45:4200:07:2300:45:3600:07:22
111316EDWARD HINTON56MBIRMINGHAM AL 00:45:4200:07:2300:45:4100:07:23
112792RAY WORKMAN53MBIRMINGHAM AL 00:45:4400:07:2300:45:4000:07:22
113246MICHAEL GANN51MBIRMINGHAM ALCADENCE MEN00:45:4500:07:2300:45:4100:07:23
114345GREGORY IKNER31MBIRMINGHAM AL 00:45:5300:07:2400:45:3300:07:21
115747JOSH WATKINS35MTRUSSVILLE AL 00:45:5400:07:2500:45:4100:07:22
116785SPENCER WILSON19MPELHAM AL 00:45:5700:07:2500:45:4900:07:24
117272GREG GREAVES47MBIRMINGHAM AL 00:46:0500:07:2600:45:5800:07:25
118470MATTHEW MICHALKE33MODENVILLE AL 00:46:0900:07:2700:46:0300:07:26
119758ADAM WENDE38MVESTAVIA HILLS AL 00:46:0900:07:2700:45:4100:07:23
120179HARRY DAVID36MBIRMINGHAM AL 00:46:1700:07:2800:46:1000:07:27
121640TRAVIS SELF52MBIRMINGHAM AL 00:46:2100:07:2900:46:1200:07:27
122164JAMES COUNSELL54MPRATTVILLE AL 00:46:2700:07:3000:46:1900:07:29
1231096PATRICK BRANNON35MBIRMINGHAM AL 00:46:3500:07:3100:46:3000:07:30
PlaceBibNAMEAgeSexCITY/STATETeamNameGunTimeGunPaceTagTimeTagPace
124506WIL MULLINS28MGADSDEN AL 00:46:4500:07:3300:46:3200:07:31
125604KEVIN ROBERSON55MMOUNT OLIVE AL 00:46:5400:07:3400:46:5000:07:34
1261022DAVID MCKEE48MPINSON AL 00:46:5500:07:3400:46:1800:07:28
127139DAN CHU36MVESTAVIA HILLS AL 00:46:5800:07:3500:46:2900:07:30
12869FRANK BARRY53MBIRMINGHAM AL 00:47:1000:07:3700:47:0200:07:35
1291080SCOTT SETTLE40MBIRMINGHAM AL 00:47:1300:07:3700:47:0700:07:36
130983LARRY MCQUISTON50MPHENIX CITY AL 00:47:1700:07:3800:47:0700:07:36
131416ADAM LINDSEY41MLEEDS ALRUNNINGLANE COED00:47:1900:07:3800:47:0900:07:37
1321058BROOKS VAUGHAN45MBIRMINGHAM AL 00:47:2200:07:3900:47:1300:07:37
133462PHILIP MCKEE53MPRATTVILLE AL 00:47:2800:07:4000:47:2000:07:38
1341048THOMAS WATSON41MVESTAVIA HILLS AL 00:47:3300:07:4100:47:2400:07:39
1351069CHUCK RADER46MHOOVER AL 00:47:3500:07:4100:47:2100:07:39
1361047ADAM WINGER35MHOMEWOOD AL 00:47:3800:07:4100:47:1800:07:38
137919SCOTT HOWARD35MBIRMINGHAM AL 00:47:5100:07:4300:47:4800:07:43
138379RYAN KIRBY30MBIRMINGHAM AL 00:47:5200:07:4400:47:4500:07:42
139658JASON SMITH47MBIRMINGHAM AL 00:47:5200:07:4400:47:4900:07:43
140374JAKE KENNAMER28MVESTAVIA HILLS AL 00:48:0000:07:4500:47:5400:07:44
141838LANDON LITTY38MBIRMINGHAM AL 00:48:0100:07:4500:47:4400:07:42
142982PARKER TURNER15MVESTAVIA AL 00:48:0400:07:4600:47:4700:07:43
143714STEVEN TROTTER42MHOOVER AL 00:48:0400:07:4600:47:5500:07:44
144458CARY MCDANIEL50MPRATTVILLE AL 00:48:1100:07:4700:48:0200:07:45
145507JORGE MUNOZ MOYA34MBIRMINGHAM AL 00:48:1300:07:4700:47:5600:07:44
146141ROY CLARKSON40MTRUSSVILLE AL 00:48:2100:07:4800:48:1200:07:47
1471025TAYLOR DONARD46MTRUSSVILLE AL 00:48:2300:07:4900:48:1700:07:48
148103HUNTER BRIDWELL33MBESSEMER AL 00:48:2700:07:4900:48:1500:07:47
149149NATHAN COLLINS40MHOOVER AL 00:48:3000:07:5000:48:2600:07:49
1501049JEFF GLAZE46MBIRMINGHAM AL 00:48:3800:07:5100:48:2700:07:49
151775PETER WILKIN39MTRUSSVILLE AL 00:48:4000:07:5100:48:3300:07:50
1521040PERRY ANDERSON55MODENVILLE AL 00:48:5500:07:5400:48:4400:07:52
153615PAUL ROSS44MVESTAVIA AL 00:49:0000:07:5500:48:1800:07:48
1541071TOMOKUNI HASEGAWA38MOSAKA 00:49:0200:07:5500:48:3300:07:50
PlaceBibNAMEAgeSexCITY/STATETeamNameGunTimeGunPaceTagTimeTagPace
155827NORIYUKI HANASHIRO58MBIRMINGHAM AL 00:49:0300:07:5500:48:4800:07:53
156890JOSH CULBERTSON42MBIRMINGHAM AL 00:49:0800:07:5600:49:0200:07:55
157834SCOTT KEY53MJACKSONVILLE AL 00:49:1400:07:5700:48:3200:07:50
158494JASON MORRIS44MVESTAVIA AL 00:49:1500:07:5700:49:0100:07:55
159299JONATHAN HAY33MBIRMINGHAM AL 00:49:2100:07:5800:48:4900:07:53
160192DREW DICKERSON43MNORTHPORT AL 00:49:2200:07:5800:49:0000:07:55
161398JEFF LANCASTER36MBIRMINGHAM AL 00:49:2600:07:5900:49:0000:07:55
162697JOHN THETFORD46MTUSCALOOSA AL 00:49:3000:07:5900:49:0100:07:55
163251CHAD GAY39MBIRMINGHAM AL 00:49:3300:08:0000:49:0600:07:56
164666ERIC SMITH47MHOOVER AL 00:49:4100:08:0100:49:3600:08:00
165249JASON GARWOOD40MBIRMINGHAM AL 00:49:4300:08:0200:49:2300:07:58
166732SAM VOGT56MVESTAVIA HILLS AL 00:49:4400:08:0200:49:2800:07:59
167261TANNER GLENN24MBIRMINGHAM AL 00:49:5500:08:0400:48:5700:07:54
1681023RUSTY HUGHES42MBIRMINGHAM AL 00:50:0100:08:0400:49:1500:07:57
16967RAMOND BANKS59MBIRMINGHAM AL 00:50:0400:08:0500:49:5300:08:03
170401DREW LANSDELL24MBIRMINGHAM AL 00:50:0800:08:0600:49:0900:07:56
17176JON BECKER35MBIRMINGHAM AL 00:50:0800:08:0600:49:4300:08:01
17263CHRISTOPHER BAGGETT42MBESSEMER ALRUNNINGLANE COED00:50:0800:08:0600:49:3100:08:00
173219PETER FALKNER35MBIRMINGHAM AL 00:50:1000:08:0600:49:4200:08:01
174649DANIEL SILBERGER29MHOMEWOOD AL 00:50:1000:08:0600:49:5000:08:03
175253MICHAEL GEER51MBIRMINGHAM AL 00:50:1100:08:0600:50:0400:08:05
176713NICK TOTH36MBIRMINGHAM AL 00:50:1500:08:0700:49:5900:08:04
177205JOHN EASON34MBIRMINGHAM AL 00:50:1600:08:0700:49:5700:08:04
178586JEFF RAY52MBIRMINGHAM AL 00:50:1800:08:0700:50:1200:08:06
179648JAMES SHOAF61MFULTONDALE AL 00:50:2400:08:0800:50:1900:08:07
1801065RYAN CANTOR36MBIRMINGHAM AL 00:50:2500:08:0800:50:1700:08:07
181436PATRICK MARTIN39MBIRMINGHAM AL 00:50:2600:08:0800:50:0700:08:05
182934SCOTT LEE44MHOOVER AL 00:50:2800:08:0900:49:4600:08:02
183624JOEY SAFFOLD47MBIRMINGHAM AL 00:50:3200:08:0900:50:1800:08:07
184539CHAD PALMORE35MBIRMINGHAM AL 00:50:3300:08:1000:50:2100:08:08
185332KELLY HORN48MFULTONDALE AL 00:50:4600:08:1200:50:3100:08:09
PlaceBibNAMEAgeSexCITY/STATETeamNameGunTimeGunPaceTagTimeTagPace
186275BRENDAN GRIFFIN27MBIRMINGHAM AL 00:50:4600:08:1200:50:3800:08:10
187765PHILLIP WHITE53MINDIAN SPRINGS AL 00:50:5000:08:1200:50:3100:08:09
188744DAVID WASHINGTON50MMERIDIANVILLE AL 00:51:0000:08:1400:50:4900:08:12
189336PHILIP HOUSLER31MBIRMINGHAM AL 00:51:0400:08:1500:50:3300:08:10
190239ROBERT FUNK53MPELL CITY AL 00:51:1200:08:1600:50:4700:08:12
191602JOSE RIVERA35MBIRMINGHAM AL 00:51:1400:08:1600:50:5500:08:13
192913THOMAS HALL56MBIRMINGHAM AL 00:51:1700:08:1700:50:5000:08:12
1931099SHANNON SHORR31MBIRMINGHAM AL 00:51:2000:08:1700:50:4700:08:12
194985DAVID CONDON47MHOMEWOOD AL 00:51:2400:08:1800:51:0400:08:15
1951055MATTHEW WEATHERS38MBIRMINGHAM AL 00:51:2500:08:1800:51:0200:08:14
196425TIMOTHY LUPINACCI50MBIRMINGHAM AL 00:51:2700:08:1800:51:0800:08:15
197684JOHN STRAKA51MLEEDS AL 00:51:3000:08:1900:50:4700:08:12
198389JONATHAN KRESSUK19MFRANKLIN WI 00:51:3900:08:2000:50:5800:08:14
19977JOEY BENTLEY35MANNISTON AL 00:51:4800:08:2200:51:0600:08:15
20059JUSTIN ASHBY37MONEONTA AL 00:51:5000:08:2200:51:5000:08:22
2011051DAVID SCHROLL33MHOMEWOOD AL 00:51:5300:08:2200:51:1000:08:16
202702STEVEN THOMPSON56MMOUNTAIN BROOK AL 00:51:5800:08:2300:51:3000:08:19
203612JASON ROSE39MHOOVER AL 00:51:5800:08:2300:51:1900:08:17
20452KEITH ANDRESS49MHOMEWOOD ALRELOLUTE RUNNING COED00:51:5900:08:2300:51:3800:08:20
205394TYLER LAHTI26MBIRMINGHAM AL 00:52:0100:08:2400:51:5800:08:23
206196EVAN DORMAN41MBIRMINGHAM AL 00:52:0200:08:2400:51:2700:08:18
207812MATTHEW BURROW29MBIRMINGHAM AL 00:52:0200:08:2400:51:0000:08:14
208908STEVE FOY49MBIRMINGHAM AL 00:52:0600:08:2500:51:4400:08:21
209131BRAD CARTER42MBIRMINGHAM AL 00:52:1200:08:2600:51:2200:08:18
210844JEFFREY MITCHELL47MBIRMINGHAM AL 00:52:1300:08:2600:52:0000:08:24
211396MICHAEL LAMBERT50MCHELSEA AL 00:52:1300:08:2600:51:4800:08:22
212592ROBERT REICH38MBIRMINGHAM AL 00:52:1400:08:2600:51:2900:08:19
2131089GARY HOWELL57MFULTONDALE AL 00:52:1500:08:2600:51:4800:08:22
214912CODY GRISSOM35MJASPER AL 00:52:1500:08:2600:51:4400:08:21
215501MIKE MOSES42MBIRMINGHAM AL 00:52:1700:08:2600:51:4100:08:21
216224BLAKE FLYNT31MCULLMAN AL 00:52:1900:08:2700:51:3800:08:20
PlaceBibNAMEAgeSexCITY/STATETeamNameGunTimeGunPaceTagTimeTagPace
217571GREG POOLE56MBIRMINGHAM AL 00:52:2000:08:2700:52:1200:08:25
218644LUKE SHANNON37MBIRMINGHAM AL 00:52:2000:08:2700:51:3500:08:20
219292ROBERT HARRIS34MLEEDS AL 00:52:2100:08:2700:51:3800:08:20
220670JUSTIN SMITHERMAN29MHELENA AL 00:52:2100:08:2700:51:5800:08:23
221945LANIER MILLSAP45MBIRMINGHAM AL 00:52:3000:08:2800:52:2100:08:27
222565CHRIS PINTO25MHOMEWOOD AL 00:52:3400:08:2900:52:1400:08:26
22335BRYANT ADAMS41MWARRIOR AL 00:52:3400:08:2900:51:3200:08:19
224977LEE WICKS20MTUSCALOOSA AL 00:52:3900:08:3000:52:2700:08:28
22537CARLOS AGEA29MBIRMINGHAM AL 00:52:4400:08:3100:52:2500:08:28
226951SHANE NORRIS38MQUINTON AL 00:52:4600:08:3100:52:1500:08:26
227683GREG STONE53MOXFORD AL 00:52:5000:08:3200:52:0700:08:25
22874JACOB BEATTY24MBIRMINGHAM AL 00:52:5700:08:3300:52:3500:08:29
229667JAMES SMITH57MBIRMINGHAM AL 00:53:0000:08:3300:52:5200:08:32
230554ROBERT PEEK24MBIRMINGHAM AL 00:53:0300:08:3400:52:3500:08:29
231517THE MIGHTY NERDNOF31MBIRMINGHAM AL 00:53:1700:08:3600:53:1700:08:36
232215BENJAMIN ETHERIEDGE40MWARRIOR AL 00:53:2200:08:3700:52:4000:08:30
233821THOMAS FLEMING56MHAMILTON AL 00:53:2300:08:3700:52:1100:08:25
234237RYAN FRIERY34MVESTAVIA HILLS AL 00:53:2500:08:3700:53:0000:08:33
235593JOSE REINA32MBIRMINGHAM AL 00:53:3000:08:3800:53:1100:08:35
2361076MICHAEL DAVIS44MCUMMING GA 00:53:3400:08:3900:53:1400:08:36
2371036ANDREW MCKINNON42MBIRMINGHAM AL 00:53:3600:08:3900:52:5400:08:32
238619TYLER ROWE26MGARDENDALE AL 00:53:3700:08:3900:53:2800:08:38
239404BRIAN LAWSON36MTRUSSVILLE AL 00:53:4000:08:4000:53:2400:08:37
240135BRYAN CHACE60MBIRMINGHAM AL 00:53:4300:08:4000:53:3400:08:39
241278SATYA GULLAPALLI45MHOOVER AL 00:53:4400:08:4000:53:3200:08:38
242718NEILL TYLER47MPELHAM AL 00:53:4500:08:4100:53:2900:08:38
2431087KEITH WOODS52MVESTAVIA HILLS AL 00:53:4700:08:4100:53:2300:08:37
244995KENNETH FORTSON61MBIRMINGHAM AL 00:53:4800:08:4100:53:4100:08:40
245877TONY BLAKENEY60MBIRMINGHAM AL 00:53:4900:08:4100:53:1000:08:35
246862TREVOR STEPHENS28MDENVER CO 00:53:5300:08:4200:53:2900:08:38
247132ANDREW CASE35MBIRMINGHAM AL 00:53:5400:08:4200:53:0000:08:33
PlaceBibNAMEAgeSexCITY/STATETeamNameGunTimeGunPaceTagTimeTagPace
24891EKKEHARD BONATZ60MBIRMINGHAM AL 00:53:5600:08:4200:53:4100:08:40
2491006RONALD OLSEN54MMADISON AL 00:53:5900:08:4300:53:4400:08:40
250786ROBERT WINDSOR27MBIRMINGHAM AL 00:54:0500:08:4400:53:2600:08:37
251420DAVID LOPER52MBIRMINGHAM AL 00:54:0600:08:4400:53:3600:08:39
2521085TIM HARRIS46MHOOVER AL 00:54:1000:08:4500:53:2700:08:38
253886ALAN CHRISTIAN50MHOOVER AL 00:54:1200:08:4500:54:0400:08:44
254899JACKSON ENGEL15MBIRMINGHAM AL 00:54:1500:08:4500:53:5400:08:42
255898CHRISTOPHER ENGEL47MBIRMINGHAM AL 00:54:1500:08:4500:54:1500:08:45
256376ALI KILIC39MBIRMINGHAM AL 00:54:2100:08:4600:54:0400:08:44
257911WILLIAM GREENWALD50MBIRMINGHAM AL 00:54:2400:08:4700:53:5100:08:42
2581005KEVIN RUGGIERO36MBIRMINGHAM AL 00:54:2500:08:4700:54:0100:08:43
259997MARK DUNN57MTRUSSVILLE AL 00:54:2600:08:4700:53:5600:08:42
260422ANDREW LOVE49MVESTAVIA HILLS AL 00:54:2600:08:4700:54:2100:08:46
261616JOEY ROSSER52MHOOVER AL 00:54:2600:08:4700:53:2900:08:38
262853JUSTIN PRITCHARD24MBIRMINGHAM AL 00:54:3600:08:4900:54:1100:08:45
263310JOHN HIGH52MHOMEWOOD AL 00:54:3800:08:4900:54:1000:08:45
26448REYNOLDS ANDERSON33MBIRMINGHAM AL 00:54:3800:08:4900:54:0900:08:45
265240JEFFREY FUQUA49MBIRMINGHAM AL 00:54:4200:08:5000:53:5900:08:43
266413CHRIS LENOIR42MCALERA AL 00:54:4200:08:5000:54:0600:08:44
267879GEOFFREY BOSTANY25MBIRMINGHAM AL 00:54:5000:08:5100:54:4500:08:50
268725WARREN VANDENTOP44MBIRMINGHAM AL 00:54:5600:08:5200:54:2600:08:47
269620FREDDY RUBIO45MBIRMINGHAM AL 00:54:5600:08:5200:54:4500:08:50
2701008RYAN WHITLEY54MPINSON AL 00:55:0100:08:5300:54:3000:08:48
2711078SCOTT TURNER50MBIRMINGHAM AL 00:55:0400:08:5300:54:4100:08:50
2721070ANIL CHADHA38MHOMEWOOD AL 00:55:0400:08:5300:54:3200:08:48
27340CHRISTOPHER ALBANY36MBIRMINGHAM AL 00:55:0600:08:5400:55:0000:08:53
274749CHRIS WATSON38MTRUSSVILLE AL 00:55:1000:08:5400:54:3600:08:49
275493DAVID MORRIS33MBIRMINGHAM AL 00:55:1100:08:5400:55:0400:08:53
276414PATRICK LEWIS33MHOOVER AL 00:55:1200:08:5500:54:2300:08:47
277884OCTAVIO CAVIEDES54MVESTAVIA HILLS AL 00:55:1900:08:5600:54:4400:08:50
278729RODRIGO VELASCO SANCHO32MBIRMINGHAM AL 00:55:1900:08:5600:55:0000:08:53
PlaceBibNAMEAgeSexCITY/STATETeamNameGunTimeGunPaceTagTimeTagPace
279952WAYNE NORRIS59MBIRMINGHAM AL 00:55:2500:08:5700:55:1400:08:55
280124CHRIS CALLAHAN40MBIRMINGHAM AL 00:55:2900:08:5700:54:5100:08:51
281497MICHAEL MORRISSEY65MBIRMINGHAM AL 00:55:3500:08:5800:54:5000:08:51
282817SIGIFREDO DURAN42MPINSON AL 00:55:3600:08:5800:54:5200:08:51
283273JAMES GREEN39MBIRMINGHAM AL 00:55:3700:08:5900:54:3500:08:49
284426CARLOS LUZURIAGA37MHOMEWOOD AL 00:55:4100:08:5900:55:2400:08:57
285815WILL DAVIS35MBIRMINGHAM AL 00:55:4700:09:0000:54:5400:08:52
2861056MARK MOLSON35MBIRMINGHAM AL 00:55:5000:09:0100:55:2900:08:57
287743KYLE WARRAM37MHELENA AL 00:55:5500:09:0100:55:2300:08:56
2881017JOSEPH KEENER45MBIRMINGHAM AL 00:55:5600:09:0200:55:1300:08:55
289968CEDRICK THOMAS42MBIRMINGHAM AL 00:55:5700:09:0200:54:5600:08:52
290325MIKE HOOD58MSPRINGVILLE AL 00:56:0800:09:0400:56:0500:09:03
291549ROBERT PAUL54MLOUISVILLE MS 00:56:0800:09:0400:55:3800:08:59
2921041BILL JACKA JR49MHOMEWOOD AL 00:56:1100:09:0400:55:2400:08:57
293688CHAD SUMMERS44MTRUSSVILLE AL 00:56:1500:09:0500:55:3900:08:59
294940TREY MCCLURE39MBIRMINGHAM AL 00:56:1700:09:0500:56:0200:09:03
29587DYLAN BLACK48MBIRMINGHAM AL 00:56:2000:09:0600:56:0300:09:03
296375GREGORY KENNEDY46MBIRMINGHAM AL 00:56:2600:09:0700:55:5700:09:02
297370DAVID KEARLEY13MCOLUMBIANA AL 00:56:2700:09:0700:56:2000:09:05
298496PHIL MORRIS45MCOLUMBIANA AL 00:56:2800:09:0700:55:4900:09:01
299268VINCENT GRAFFEO38MBIRMINGHAM AL 00:56:3000:09:0700:55:3600:08:58
300540SUKESH PARAMESWARAN47MMADISON AL 00:56:3100:09:0700:56:1400:09:05
301170JUSTIN CROCKER28MDORA AL 00:56:3300:09:0800:55:2700:08:57
302926LUKE JONES31MBIRMINGHAM AL 00:56:3500:09:0800:56:0200:09:03
303148BRANDON COLLINS42MCALERA AL 00:56:4100:09:0900:56:1700:09:05
304106JAMES BROOME63MBIRMINGHAM AL 00:56:4500:09:1000:55:5900:09:02
305755LANCE WEEKS52MMOUNT OLIVE AL 00:56:4600:09:1000:55:4200:09:00
3061052JASON DUNCAN36MBIRMINGHAM AL 00:56:4800:09:1000:56:3000:09:07
307881CHARLES BROWNING68MPELL CITY AL 00:56:5100:09:1100:56:3700:09:08
308305DOUGLAS HENSON47MBIRMINGHAM AL 00:57:0200:09:1200:56:2300:09:06
309607ROD ROBINSON49MBIRMINGHAM ALRESOLUTE RUNNING COED00:57:0400:09:1300:56:3700:09:08
PlaceBibNAMEAgeSexCITY/STATETeamNameGunTimeGunPaceTagTimeTagPace
310856GORDIE ROBINSON60MBIRMINGHAM AL 00:57:1200:09:1400:56:1900:09:05
311661KYLE SMITH47MCLANTON AL 00:57:1400:09:1400:56:3700:09:08
312800THOMAS YERBY25MHOOVER AL 00:57:1500:09:1400:57:0200:09:12
313935DEJARVIS LEONARD II25MBESSEMER AL 00:57:1800:09:1500:56:5100:09:11
314741SAM WARBINGTON61MBIRMINGHAM AL 00:57:2000:09:1500:57:1400:09:14
315583JAMEY RAMSEY35MTRUSSVILLE AL 00:57:2000:09:1500:56:3400:09:08
316151CHRIS COLPACK50MBIRMINGHAM AL 00:57:2000:09:1500:56:3400:09:08
31780SURYA BHATT39MBIRMINGHAM AL 00:57:2400:09:1600:57:0300:09:13
318371STEPHEN KEARLEY38MCOLUMBIANA AL 00:57:2500:09:1600:57:1200:09:14
319772RANDY WILHITE63MDORA AL 00:57:2800:09:1600:57:1600:09:15
320654MIKE SLOANE60MBIRMINGHAM AL 00:57:2800:09:1700:55:5900:09:02
321126MATTHEW CAMPBELL19MMEDWAY MA 00:57:3100:09:1700:56:5000:09:10
322556STEVE PENLEY57MCLANTON AL 00:57:3200:09:1700:57:1100:09:14
323782ARLYNN WILSON57MHUNTSVILLE AL 00:57:3700:09:1800:56:4700:09:10
324580STEVEN PURDY57MTRUSSVILLET AL 00:57:4200:09:1900:57:2000:09:15
3251066CHRIS HOLMES44MBIRMINGHAM AL 00:57:5000:09:2000:56:5000:09:10
326282BRYAN HANCOCK44MBIRMINGHAM AL 00:57:5000:09:2000:57:2600:09:16
3271034SCOTT PADGITT51MBIRMINGHAM AL 00:57:5000:09:2000:56:5000:09:10
328730ADAM VISE27MBIRMINGHAM AL 00:58:0100:09:2200:57:3200:09:17
3291001SKIP MATHEWS60MTRUSSVILLE AL 00:58:0300:09:2200:57:4200:09:19
330531BEN ONI71MAUBURN AL 00:58:0600:09:2300:57:4100:09:19
331383NATHAN KLENKE25MBIRMINGHAM AL 00:58:0600:09:2300:57:0700:09:13
332236DEAN FRIERY39MWEST MONROE LA 00:58:0800:09:2300:57:4300:09:19
333427SIMMONS LYONS34MMAYLENE AL 00:58:1000:09:2300:57:0900:09:13
334323RONNY HOLLAWAY63MBIRMINGHAM AL 00:58:1800:09:2500:57:4800:09:20
335264JONATHAN GOMEZ29MBIRMINGHAM AL 00:58:2000:09:2500:58:0500:09:23
336978JORDAN WILKES30MBIRMINGHAM AL 00:58:2200:09:2500:57:5000:09:20
337119JEFF BURBANK55MMAYLENE AL 00:58:2300:09:2500:58:0800:09:23
338356BRIAN JOHNSON31MBIRMINGHAM AL 00:58:2300:09:2500:57:5100:09:20
339327CHRIS HOOKS41MBIRMINGHAM AL 00:58:2500:09:2600:57:4400:09:19
340855DAVID REDDEN47MBIRMINGHAM AL 00:58:2700:09:2600:57:2000:09:15
PlaceBibNAMEAgeSexCITY/STATETeamNameGunTimeGunPaceTagTimeTagPace
341484STEPHEN MONTI47MHOOVER AL 00:58:2800:09:2600:57:4700:09:20
342298MATT HAUBER36MOOLTEWAH TN 00:58:3400:09:2700:57:1900:09:15
343514ANDREW NEIGEL57MATHABASCA CA 00:58:3500:09:2700:58:1400:09:24
344403JOSEPH LAWHORN34MHOOVER AL 00:58:3700:09:2800:58:0000:09:22
345626JOSE SANCHEZ MARQUEZ36MBIRMINGHAM AL 00:58:4100:09:2800:58:2200:09:25
346728JASE VANN33MBIRMINGHAM AL 00:58:4200:09:2800:58:1000:09:23
347653ROBERT SIMS59MHOMEWOOD AL 00:58:4300:09:2900:58:0600:09:23
348724PATRICK VANDE LUNE25MBIRMINGHAM AL 00:58:5100:09:3000:57:4400:09:19
349807RUSS BAILEY39MIRONDALE AL 00:58:5400:09:3000:58:2700:09:26
3501007MIKE BRYAN62MMOUNT OLIVE AL 00:58:5400:09:3000:58:4000:09:28
3511054ANDREW GREENWALD25MBIRMINGHAM AL 00:59:0000:09:3100:58:3700:09:28
352543LANCE PARMER29MBIRMINGHAM ALCABANISS JOHNSTON00:59:0100:09:3200:58:2800:09:26
353406DEAN LEADER64MBIRMINGHAM AL 00:59:0500:09:3200:58:4100:09:28
354118BRETT BURBANK22MMAYLENE AL 00:59:1300:09:3400:58:5800:09:31
355512MARK MYERS59MBIRMINGHAM AL 00:59:1500:09:3400:58:3600:09:28
356923KEN HYATT53MBIRMINGHAM AL 00:59:1700:09:3400:58:0600:09:23
357871CHAD ANDERSON45MLEEDS AL 00:59:2500:09:3500:58:4500:09:29
358698JEFF THOMAS42MLEEDS AL 00:59:2500:09:3500:58:4400:09:29
359532CARLOS ORIHUELA43MHOMEWOOD AL 00:59:3500:09:3700:58:5600:09:31
3601060RAY CARTER57MSHANNON AL 00:59:3800:09:3700:59:2700:09:36
361480SCOTT MISSILDINE54MDECATUR AL 00:59:3800:09:3800:59:1600:09:34
362835BARRY KEY52MWILSONVILLE AL 00:59:4400:09:3900:59:0000:09:31
363841ALLEN MARCHINO42MBIRMINGHAM AL 00:59:4600:09:3900:58:5900:09:31
364600ANDREW RICKLES40MPINSON AL 00:59:4900:09:3900:59:0500:09:32
3651044CHRIS BROWN49MVESTAVIA AL 00:59:5300:09:4000:58:4900:09:30
366435ANDREW MARLIN51MBIRMINGHAM AL 00:59:5300:09:4000:59:0100:09:32
367279JIM HAGER45MLEEDS AL 00:59:5300:09:4000:59:3100:09:36
368929TERRY KNIGHT45MBIRMINGHAM AL 00:59:5600:09:4000:59:1500:09:34
3691073KEVIN BURKE39MBIRMINGHAM AL 00:59:5800:09:4100:59:2700:09:36
370825LANDON GOFF12MBRENTWOOD TN 00:59:5800:09:4100:59:5100:09:40
371647RONALD SHINN67MBIRMINGHAM AL 00:59:5900:09:4100:59:3600:09:37
PlaceBibNAMEAgeSexCITY/STATETeamNameGunTimeGunPaceTagTimeTagPace
372839RAMZI MALEK55MONEONTA AL 01:00:0200:09:4100:59:1100:09:33
3731075BROOKE HOLBERT45MVESTAVIA HILLS AL 01:00:0500:09:4200:59:2400:09:35
374555JASON PENG28MBIRMINGHAM AL 01:00:0500:09:4200:59:4600:09:39
375845JAMES MOODY31MMOODY AL 01:00:1400:09:4300:59:2500:09:35
376558BRANDON PETTIT44MBIRMINGHAM AL 01:00:1700:09:4400:59:5100:09:40
377999MIKE MORRIS49MVESTAVIA HILLS AL 01:00:1700:09:4400:59:3800:09:37
378717RICHARD TURNBULL56MBIRMINGHAM AL 01:00:1900:09:4401:00:0500:09:42
379671GENE SNOW61MALPHARETTA GA 01:00:1900:09:4401:00:0100:09:41
380266K GORDON40MBIRMINGHAM AL 01:00:2000:09:4401:00:0600:09:42
381459WILLIE MCDANIEL43MHOOVER ALCADENCE MEN01:00:2900:09:4601:00:1300:09:43
382931MATTHEW LEDUKE45MGUIN AL 01:00:3400:09:4700:59:2000:09:35
383213PAUL ESTEP35MMC CALLA AL 01:00:3900:09:4701:00:0800:09:42
384990ROBBY WATSON43MBIRMINGHAM AL 01:00:4900:09:4901:00:1400:09:43
385581ASH QUAKENBUSH37MCHELSEA AL 01:00:5000:09:4901:00:0100:09:41
386303VICTOR HENKEN54MBIRMINGHAM AL 01:00:5500:09:5001:00:3900:09:47
387444KEVIN MAUGHAN41MPELHAM ALCABANISS JOHNSTON01:01:0600:09:5201:00:3300:09:46
38873BUTCH BEACH41MMOUNTAIN BROOK AL 01:01:1300:09:5301:00:2900:09:46
389892DAVID CULLIGHAN47MBIRMINGHAM AL 01:01:1300:09:5301:00:2900:09:46
390949NICK NELSON32MBIRMINGHAM AL 01:01:1700:09:5301:00:4400:09:48
391759FRANK WENNBERG41MWINFIELD AL 01:01:1900:09:5401:00:4100:09:48
392177SHAWN CUSTRED23MSMITHS STATION AL 01:01:2100:09:5401:00:3600:09:47
393308ARTHUR HERBERT36MMONTEVALLO AL 01:01:2100:09:5401:01:2100:09:54
394657JORDAN SMITH25MBIRMINGHAM AL 01:01:3100:09:5601:00:3300:09:46
39595RICHARD BOTTSFORD60MBIRMINGHAM AL 01:01:3200:09:5601:00:5700:09:50
3961095RANDY ALDRICH52MTRUSSVILLE AL 01:01:3300:09:5601:00:4700:09:49
397630DOUG SCARBOROUGH40MBIRMINGHAM AL 01:01:3300:09:5601:00:5800:09:50
39855THOMAS ARMSTRONG65MBIRMINGHAM AL 01:01:3300:09:5601:01:1700:09:54
399108RICHARD BROOME62MBIRMINGHAM AL 01:01:3500:09:5601:00:3100:09:46
400937JOHN LOSSIE54MPELHAM AL 01:01:3900:09:5701:00:5300:09:50
401705BRANDON THURBER35MBIRMINGHAM AL 01:01:4000:09:5701:00:4500:09:48
402829PAUL HOFFMAN52MBIRMINGHAM AL 01:01:4100:09:5701:01:0500:09:51
PlaceBibNAMEAgeSexCITY/STATETeamNameGunTimeGunPaceTagTimeTagPace
4031064GAVIN BLAKELEY31MMOUNTAIN BROOK AL 01:02:0300:10:0101:01:2700:09:55
4041082LARRY JOHNSON65MVESTAVIA AL 01:02:0600:10:0101:01:2800:09:55
405315NICHOLAS HILL II52MPINSON AL 01:02:1200:10:0201:01:2000:09:54
406577JOHN PRESTRIDGE33MALABASTER AL 01:02:2200:10:0401:01:4200:09:57
407115CHARLIE BROWN61MBIRMINGHAM AL 01:02:2300:10:0401:01:5200:09:59
4081015GRANT MUSGROVE42MVESTAVIA HILLS AL 01:02:2800:10:0501:02:0000:10:00
409438PAUL MATHEWS42MBIRMINGHAM AL 01:02:2800:10:0501:01:1600:09:53
410889NOAH CRAWFORD13MTRUSSVILLE ALRUNNINGLANE COED01:02:4300:10:0701:02:3600:10:06
411992PATRICK DRISCOLL31MALABASTER AL 01:03:1500:10:1301:02:0200:10:01
412660ROWAN SMITH64MBIRMINGHAM AL 01:03:2900:10:1501:02:5500:10:09
413301TED HEGENBARTH75MGADSDEN AL 01:03:4000:10:1701:03:2200:10:14
414576PETE PRESTON60MMONTGOMERY AL 01:03:4600:10:1801:02:5900:10:10
415609VAN ROGERS21MBIRMINGHAM AL 01:03:4800:10:1801:02:4400:10:07
416751JEFF WAYMAN64MEAST TEMPLETON MA 01:03:5000:10:1801:02:5900:10:10
417752KEN WAYMAN33MAUBURN AL 01:03:5300:10:1901:03:0100:10:10
418748JAKE WATSON25MADGER AL 01:03:5900:10:2001:03:1400:10:12
419828JEFFREY HERLE56MBIRMINGHAM AL 01:04:0100:10:2001:03:0800:10:11
420519RICKY NICKOLES54MNORTHPORT AL 01:04:0400:10:2001:03:3000:10:15
421712CHRIS TOTH61MPELHAM AL 01:04:0800:10:2101:03:5300:10:19
422696NEIMA TAVAKOLI37MVESTAVIA AL 01:04:0900:10:2101:03:0600:10:11
423905RYAN FORDHAM30MHUNTSVILLE AL 01:04:1000:10:2101:03:1300:10:12
42478JEAN-PHILIPPE BERTHOLD37MHOOVER AL 01:04:1300:10:2201:03:4600:10:18
425365ERIC JUROTICH50MBIRMINGHAM AL 01:04:1500:10:2201:03:4500:10:17
426569STEVE PITTS60MBIRMINGHAM AL 01:04:2300:10:2401:03:1600:10:13
4271033MATTHEW MCKENZIE33MHELENA AL 01:04:2500:10:2401:03:5100:10:18
428260JEFFREY GLEASON44MBIRMINGHAM AL 01:04:2800:10:2401:03:2600:10:14
429190ADAM DESCHAMPS46MMOODY AL 01:04:3400:10:2501:03:4500:10:17
430474ANDREW MILLER44MBIRMINGHAM AL 01:04:5000:10:2801:04:1500:10:22
4311057DOUG ALLEN59MBIRMINGHAM AL 01:04:5400:10:2901:04:1500:10:22
432387BRUCE KOLLING44MBIRMINGHAM AL 01:04:5600:10:2901:03:4900:10:18
433674ALAN STAMM67MBIRMINGHAM AL 01:04:5900:10:2901:04:3700:10:26
PlaceBibNAMEAgeSexCITY/STATETeamNameGunTimeGunPaceTagTimeTagPace
434865DANIEL VAN HAUEN34MMOUNTAIN BROOK AL 01:05:1100:10:3101:04:2900:10:24
435914CHAD HANSON43MTRUSSVILLE AL 01:05:4800:10:3701:05:0800:10:31
436206TIM EASTERLING43MPINSON AL 01:05:5800:10:3901:05:0400:10:30
43790TOMMY BOGER41MGARDENDALE AL 01:06:0600:10:4001:05:0200:10:30
438962BUDDY SMITH57MHOMEWOOD AL 01:06:0900:10:4001:05:4200:10:36
439851GREGORY PENCE68MBIRMINGHAM AL 01:06:1500:10:4101:05:0200:10:30
440491BRENTON MORRIS45MHOOVER AL 01:06:2100:10:4201:05:2100:10:33
44199ROBERT BOYLAN32MBIRMINGHAM AL 01:06:3000:10:4401:06:0300:10:40
442720LAWRENCE TYSON63MBIRMINGHAM ALCOUNSELORS ON THE RUN01:06:3300:10:4401:05:5700:10:39
443542JEFF PARMER52MMOUNTAIN BROOK AL 01:06:3700:10:4501:05:3700:10:35
444965GLENN STEWART42MBIRMINGHAM AL 01:06:4100:10:4601:05:4800:10:37
445535BRAM O'STEEN68MMUSCLE SHOALS AL 01:06:5000:10:4701:06:1100:10:41
446735FRED WALBURN73MLIVINGSTON AL 01:07:1600:10:5101:06:4700:10:47
4471004JAN EWERS39MBIRMINGHAM AL 01:07:3000:10:5401:07:2200:10:52
448685JOHN STREIFF46MBIRMINGHAM AL 01:07:3400:10:5401:07:0400:10:49
4491038PARKER DOBBINS45MBIRMINGHAM AL 01:07:3400:10:5401:06:2800:10:44
450223MITCH FLOYD46MALBERTVILLE AL 01:07:4000:10:5501:06:2700:10:44
451495MATT MORRIS39MHELENA AL 01:07:4100:10:5501:07:3000:10:54
452538RANDALL PALMORE60MJASPER AL 01:08:1400:11:0101:08:0100:10:59
453353PAUL JERNIGAN39MHOOVER AL 01:08:1700:11:0101:07:2000:10:52
4541046PHIL MIN61MMT OLIVE AL 01:08:1700:11:0101:07:3200:10:54
455628STEPHEN SAVINCKI37MHELENA AL 01:08:1900:11:0201:07:1800:10:52
456793WAYNE WRIGHT52MWEST BLOCTON AL 01:08:5900:11:0801:08:3900:11:05
457351MIKE JENKINS55MBIRMINGHAM AL 01:08:5900:11:0801:08:0100:10:59
458487JOHN MOORE44MGADSDEN AL 01:09:2800:11:1301:09:0100:11:08
459946ROB MITCHELL26MBIRMINGHAM AL 01:09:3500:11:1401:08:4900:11:06
4601002HARRIS ED62MTRUSSVILLE AL 01:09:5900:11:1801:09:1000:11:10
461450STUART MCATEE50MBIRMINGHAM AL 01:10:0500:11:1901:08:5700:11:08
462974MICHAEL VICE15MBIRMINGHAM AL 01:10:3200:11:2301:10:1800:11:21
463377BRYAN KING46MHOMEWOOD AL 01:10:4900:11:2601:09:4000:11:15
4641068ALAN PINION46MTRUSSVILLE AL 01:10:5800:11:2701:10:1400:11:20
PlaceBibNAMEAgeSexCITY/STATETeamNameGunTimeGunPaceTagTimeTagPace
4651003WILLI EWERS75MBIRMINGHAM AL 01:11:2800:11:3201:11:1900:11:31
466464RYAN MCLELLAN46MPELHAM AL 01:11:4200:11:3401:10:4200:11:25
467346JAMES JACKSON69MVESTAVIA AL 01:12:1600:11:4001:10:5300:11:26
468723CLARK UNDERBAKKE46MBIRMINGHAM AL 01:12:3400:11:4301:11:4500:11:35
469362GORMAN JONES57MBIRMINGHAM AL 01:12:3400:11:4301:11:4400:11:35
470695DAVID TAVAKOLI43MATLANTA GA 01:12:3700:11:4301:11:3500:11:33
471455CAL MCCLESKEY32MBIRMINGHAM AL 01:12:4200:11:4401:12:2300:11:41
4721091CHRIS WANG35MHOOVER AL 01:13:0900:11:4801:11:5700:11:37
4731077VERN SWINDELL44MGARDENDALE AL 01:13:1000:11:4801:12:4900:11:45
4741032BLAKE FITZSIMMONS23MADGER AL 01:13:3200:11:5201:12:4700:11:45
475961MICHAEL ROUTMAN62MBIRMINGHAM AL 01:14:0900:11:5801:13:1900:11:50
476742MATT WARNAT31MBIRMINGHAM AL 01:15:2700:12:1101:14:4700:12:04
477344RUSSELL HYDE55MBIRMINGHAM AL 01:15:4600:12:1401:15:0500:12:07
478122JIM BYRD61MBIRMINGHAM AL 01:16:2100:12:1901:15:2900:12:11
4791039LES BAILEY66MBIRMINGHAM AL 01:16:3100:12:2101:15:2900:12:11
480668JUSTIN SMITH34MBIRMINGHAM AL 01:17:4100:12:3201:16:3700:12:22
481412ROBERT LENOIR65MBIRMINGHAM AL 01:18:2900:12:4001:17:5300:12:34
482907JIMMY FORDHAM54MBIRMINGHAM AL 01:18:3700:12:4101:17:3400:12:31
483909KELLY GARNER51MBIRMINGHAM ALRESOLUTE RUNNING COED01:20:3200:13:0001:19:3500:12:51
484869DARRIN ABERNATHY49MHOOVER ALRESOLUTE RUNNING COED01:20:3300:13:0001:19:3200:12:50
485258DARRELL GIBSON45MHOMEWOOD AL 01:20:3300:13:0001:19:5800:12:54
4861043TOM SMOTHERS65MCHELSEA AL 01:24:5400:13:4201:24:2300:13:37
487457HORACE MCCOY JR38MBIRMINGHAM AL 01:24:5900:13:4301:24:5900:13:43
488936SAM LOCHAMY62MPELHAM AL 01:25:2800:13:4701:24:2300:13:37
489763GREG WEYANDT64MBIRMINGHAM AL 01:26:2800:13:5701:25:1700:13:46
490469LARRY MEANS69MATTALLA AL 01:26:4600:14:0001:26:2100:13:56
49183WILLIAM BISHOP23MHUNTSVILLE AL 01:27:1800:14:0501:26:2900:13:57
492492DEWAYNE MORRIS85MBIRMINGHAM AL 01:27:3900:14:0901:26:4600:14:00
493472BILL MILLER41MCHELSEA AL 01:30:2900:14:3601:29:2400:14:26
494675BEN STANA16MBIRMINGHAM AL 01:32:2400:14:5501:31:1600:14:44
495461ROBERT MCELROY46MBIRMINGHAM AL 01:32:2500:14:5501:31:2300:14:45
PlaceBibNAMEAgeSexCITY/STATETeamNameGunTimeGunPaceTagTimeTagPace
496321CARL GIBSON HOLLADAY60MPELL CITY AL 01:36:0800:15:3101:35:2600:15:24
497269GREG GRAHAM58MHOMEWOOD AL 01:36:0900:15:3101:35:2900:15:24
4981035CLINTON ALVERSON50MCANTON GA 01:37:3300:15:4401:36:1900:15:33
499722BILL UHRIG73MBIRMINGHAM AL 01:44:3100:16:5201:43:4300:16:44

** Results are for the private use of participants and are the Intellectual Property of Set Up Events. Unauthorized use of these results is prohibited.